Fairbanks Ft. Wainwright, AK

7:58 PM AKDT on April 26, 2018 (GMT -0800)
Ladd Army Air Field

Weather History for PAFB - October, 2013

Change the Weather History Date:

Tuesday, October 8, 2013

  Actual Average Record
Temperature  
Mean Temperature 40 °F -  
Max Temperature 50 °F 35 °F 53 °F (2016)
Min Temperature 30 °F 22 °F 12 °F (1998)
Degree Days  
Heating Degree Days 25    
Moisture  
Dew Point 29 °F    
Average Humidity 61    
Maximum Humidity 85    
Minimum Humidity 47    
Precipitation  
Precipitation 0.00 in - - ()
Sea Level Pressure  
Sea Level Pressure 29.24 in    
Wind  
Wind Speed 11 mph (East)    
Max Wind Speed 17 mph    
Max Gust Speed 20 mph    
Visibility 10 miles    
Events Rain    
Averages and records for this station are not official NWS values.
T = Trace of Precipitation, MM = Missing Value Source: NWS Daily Summary

Daily Weather History Graph

Daily Weather History Graph

Search for Another Location

Airport or City:

Astronomy

Oct. 08, 2013 Rise Set
Actual Time 8:22 AM AKDT 6:51 PM AKDT
Civil Twilight 7:33 AM AKDT 7:40 PM AKDT
Nautical Twilight 6:36 AM AKDT 8:37 PM AKDT
Astronomical Twilight 5:36 AM AKDT 9:36 PM AKDT
Moon 2:04 PM AKDT (10/8) 7:58 PM AKDT (10/8)
Length of Visible Light 12h 07m
Length of Day
10h 28m
Waxing Crescent, 17% of the Moon is Illuminated
Oct 8
Waxing Crescent
Oct 11
First Quarter
Oct 18
Full
Oct 26
Last Quarter
Nov 3
New

Hourly Weather History & Observations

Time (AKDT) Temp. Windchill Dew Point Humidity Pressure Visibility Wind Dir Wind Speed Gust Speed Precip Events Conditions
12:56 AM 30.9 °F 22.2 °F 27.0 °F 85% 29.69 in 10.0 mi ENE 10.4 mph - N/A   Clear
1:56 AM 30.9 °F 21.7 °F 27.0 °F 85% 29.63 in 10.0 mi ENE 11.5 mph - N/A   Clear
2:56 AM 32.0 °F 23.0 °F 27.0 °F 82% 29.57 in 10.0 mi ENE 11.5 mph - N/A   Clear
3:56 AM 35.1 °F 25.9 °F 27.0 °F 72% 29.51 in 10.0 mi East 13.8 mph - N/A   Clear
4:56 AM 37.9 °F 28.5 °F 26.1 °F 62% 29.45 in 10.0 mi East 17.3 mph - N/A   Clear
5:56 AM 39.9 °F 31.8 °F 24.1 °F 53% 29.40 in 10.0 mi East 15.0 mph - N/A   Mostly Cloudy
6:10 AM 39.2 °F 30.5 °F 24.8 °F 56% 29.38 in 10.0 mi East 16.1 mph - N/A   Mostly Cloudy
6:55 AM 41.0 °F 33.5 °F 24.8 °F 53% 29.37 in 10.0 mi East 13.8 mph - N/A   Overcast
7:55 AM 42.8 °F 36.6 °F 24.8 °F 49% 29.34 in 10.0 mi ENE 11.5 mph - N/A   Overcast
8:55 AM 42.8 °F 37.5 °F 24.8 °F 49% 29.32 in 10.0 mi ENE 9.2 mph - N/A   Overcast
9:15 AM 42.8 °F 36.6 °F 24.8 °F 49% 29.29 in 10.0 mi ENE 11.5 mph - N/A Rain Light Rain
9:55 AM 42.8 °F 35.4 °F 28.4 °F 57% 29.29 in 10.0 mi East 15.0 mph - N/A Rain Light Rain
10:55 AM 42.8 °F 37.5 °F 30.2 °F 61% 29.25 in 10.0 mi ENE 9.2 mph - N/A Rain Light Rain
11:45 AM 42.8 °F 35.4 °F 33.8 °F 70% 29.19 in 10.0 mi East 15.0 mph - N/A   Mostly Cloudy
11:55 AM 42.8 °F 36.2 °F 33.8 °F 70% 29.21 in 10.0 mi East 12.7 mph - N/A   Mostly Cloudy
12:55 PM 44.6 °F 39.7 °F 33.8 °F 66% 29.19 in 10.0 mi East 9.2 mph - N/A   Mostly Cloudy
1:55 PM 46.4 °F 42.4 °F 33.8 °F 62% 29.15 in 10.0 mi East 8.1 mph - N/A   Mostly Cloudy
2:55 PM 50.0 °F - 30.2 °F 47% 29.11 in 10.0 mi ESE 12.7 mph 19.6 mph N/A   Overcast
3:55 PM 50.0 °F - 30.2 °F 47% 29.08 in 10.0 mi ESE 10.4 mph - N/A   Overcast
4:55 PM 48.2 °F - 30.2 °F 50% 29.06 in 10.0 mi East 5.8 mph - N/A   Overcast
5:55 PM 46.4 °F - 30.2 °F 53% 29.04 in 10.0 mi Calm Calm - N/A   Overcast
6:55 PM 46.4 °F - 30.2 °F 53% 29.02 in 10.0 mi Calm Calm - N/A   Mostly Cloudy
7:55 PM 46.4 °F 45.2 °F 30.2 °F 53% 29.01 in 10.0 mi ENE 3.5 mph - N/A   Mostly Cloudy
8:55 PM 42.8 °F - 30.2 °F 61% 29.00 in 10.0 mi Calm Calm - N/A   Overcast
9:55 PM 44.6 °F - 30.2 °F 57% 28.99 in 10.0 mi Calm Calm - N/A   Overcast
10:56 PM 41.0 °F 39.0 °F 32.0 °F 70% 28.99 in 10.0 mi SW 3.5 mph - N/A   Overcast
11:56 PM 42.1 °F 38.4 °F 33.1 °F 70% 29.00 in 10.0 mi WSW 5.8 mph - N/A   Overcast